Culiacan, Mexico

5:02 AM MST on December 13, 2017 (GMT -0700)
Culiacan International

Weather History for MMCL - December, 2012

Change the Weather History Date:

Friday, December 21, 2012

  Actual Average Record
Temperature  
Mean Temperature 67 °F -  
Max Temperature 82 °F 80 °F 95 °F (2016)
Min Temperature 52 °F 54 °F 46 °F (2014)
Cooling Degree Days 2    
Growing Degree Days 17 (Base 50)    
Moisture  
Dew Point 61 °F    
Average Humidity 75    
Maximum Humidity 100    
Minimum Humidity 50    
Precipitation  
Precipitation 0.00 in - - ()
Sea Level Pressure  
Sea Level Pressure 29.99 in    
Wind  
Wind Speed 1 mph ()    
Max Wind Speed 6 mph    
Max Gust Speed -    
Visibility 9.4 miles    
Events      
Averages and records for this station are not official NWS values.
T = Trace of Precipitation, MM = Missing Value Source: Averaged Metar Reports

Daily Weather History Graph

Daily Weather History Graph

Search for Another Location

Airport or City:

Trip Planner

Search our weather history database for the weather conditions in past years. The results will help you decide how hot, cold, wet, or windy it might be!

Date:

Astronomy

Dec. 21, 2012 Rise Set
Actual Time 6:50 AM MST 5:26 PM MST
Civil Twilight 6:25 AM MST 5:51 PM MST
Nautical Twilight 5:56 AM MST 6:19 PM MST
Astronomical Twilight 5:28 AM MST 6:47 PM MST
Moon 12:52 PM MST (12/21) 1:05 AM MST (12/21)
Length of Visible Light 11h 26m
Length of Day
10h 36m
Waxing Gibbous, 65% of the Moon is Illuminated
Dec 21
Waxing Gibbous
Dec 28
Full
Jan 4
Last Quarter
Jan 11
New
Jan 18
First Quarter

Hourly Weather History & Observations

Time (MST) Temp. Heat Index Dew Point Humidity Pressure Visibility Wind Dir Wind Speed Gust Speed Precip Events Conditions
1:49 AM 61 °F - 60 °F 95% 30.01 in 6 mi Calm Calm - -  
2:12 AM 60.8 °F - 60.8 °F 100% 29.97 in 10.0 mi Calm Calm - N/A   Scattered Clouds
2:44 AM 59.0 °F - 57.2 °F 94% 29.97 in 8.0 mi Calm Calm - N/A   Mostly Cloudy
4:45 AM 59 °F - 57 °F 90% 30.01 in 6 mi Calm Calm - -  
5:47 AM 60.8 °F - 57.2 °F 88% 29.96 in 10.0 mi Calm Calm - N/A   Scattered Clouds
6:45 AM 60.8 °F - 57.2 °F 88% 29.98 in 10.0 mi Calm Calm - N/A   Scattered Clouds
7:35 AM 59 °F - 56 °F 88% 30.02 in 10 mi Calm Calm - -  
7:41 AM 60.8 °F - 57.2 °F 88% 29.99 in 10.0 mi Calm Calm - N/A   Scattered Clouds
8:41 AM 64.4 °F - 59.0 °F 83% 30.01 in 10.0 mi Calm Calm - N/A   Mostly Cloudy
9:43 AM 71.6 °F - 60.8 °F 69% 30.03 in 10.0 mi Calm Calm - N/A   Mostly Cloudy
10:40 AM 72 °F - 64 °F 69% 30.10 in 10 mi SW 2.2 mph - -   Haze
10:46 AM 77.0 °F - 57.2 °F 50% 30.02 in 10.0 mi Calm Calm - N/A   Scattered Clouds
11:44 AM 78.8 °F - 59.0 °F 51% 30.00 in 10.0 mi Calm Calm - N/A   Scattered Clouds
12:42 PM 80.6 °F 81.8 °F 62.6 °F 54% 29.97 in 10.0 mi ESE 5.8 mph - N/A   Overcast
1:40 PM 76 °F - 65 °F 60% 30.01 in 10 mi SW 4.5 mph - -   Haze
1:44 PM 80.6 °F 81.8 °F 62.6 °F 54% 29.93 in 10.0 mi SSE 5.8 mph - N/A   Mostly Cloudy
2:40 PM 82.4 °F 83.9 °F 64.4 °F 54% 29.94 in 9.0 mi SSW 5.8 mph - N/A   Mostly Cloudy
3:41 PM 82.4 °F 83.9 °F 64.4 °F 54% 29.94 in 10.0 mi Calm Calm - N/A   Mostly Cloudy
4:40 PM 74 °F - 64 °F 63% 30.00 in 10 mi SW 2.2 mph - -   Haze
4:41 PM 78.8 °F - 62.6 °F 57% 29.95 in 10.0 mi Calm Calm - N/A   Mostly Cloudy
5:40 PM 73.4 °F - 62.6 °F 69% 29.96 in 10.0 mi West 5.8 mph - N/A   Mostly Cloudy
6:40 PM 69.8 °F - 60.8 °F 73% 29.99 in 10.0 mi Calm Calm - N/A   Mostly Cloudy
7:40 PM 64 °F - 62 °F 89% 30.05 in 6 mi SW 2.2 mph - -  
7:41 PM 66.2 °F - 62.6 °F 88% 30.01 in 10.0 mi Calm Calm - N/A   Scattered Clouds
8:40 PM 66.2 °F - 62.6 °F 88% 30.02 in 10.0 mi Calm Calm - N/A   Partly Cloudy
9:40 PM 64.4 °F - 59.0 °F 83% 30.03 in 10.0 mi Calm Calm - N/A   Clear